Location: Unspecified
(41.5000°N, 0.0000°E)
Time: 08:35:51
(UTC+00:00)

Courier 1B Rocket - Pass Details

Date: 28 June 2019
Orbit: 920 x 1202 km, 28.2° (Epoch: 23 July)

Event Time Altitude Azimuth Distance (km) Brightness Sun altitude
Rises 03:16:56 0° 244° (WSW) 3,995 - -11.2°
Reaches altitude 10° 03:20:14 10° 233° (SW) 2,992 - -10.8°
Exits shadow 03:21:08 13° 229° (SW) 2,747 6.7 -10.7°
Maximum altitude 03:26:13 27° 178° (S) 1,917 6.2 -10.0°
Drops below altitude 10° 03:31:52 10° 123° (ESE) 2,820 7.6 -9.2°
Sets 03:34:53 0° 112° (ESE) 3,725 8.4 -8.8°
